EW7226 Weather Reports


Display with metric or nautical units.
time (UTC)temp
F
wind
direction
speed
MPH
gust
MPH
rain 1hr
in
rain 24hr
in
rain mn
in
humidity
%
barometer
mb
20260506043017 65 360 0.0 0.0 0.00 0.23 0.12 49 1010.3
20260506041509 65 360 0.0 0.0 0.00 0.23 0.12 48 1010.1
20260506040009 65 360 0.0 0.0 0.00 0.23 0.12 46 1009.9
20260506034509 66 360 0.0 0.0 0.00 0.24 0.12 44 1009.8
20260506033015 66 360 0.0 0.0 0.00 0.24 0.12 41 1009.6
20260506031508 67 360 0.0 0.0 0.00 0.24 0.12 38 1009.2
20260506030009 67 360 0.0 0.0 0.00 0.24 0.12 36 1009.0
20260506024524 68 360 0.0 0.0 0.00 0.32 0.12 34 1008.8
20260506023006 68 360 0.0 0.0 0.00 0.32 0.12 34 1008.5
20260506021507 68 360 0.0 0.0 0.00 0.32 0.12 34 1008.3
20260506020008 69 360 0.0 0.0 0.00 0.32 0.12 34 1008.0
20260506014507 70 360 0.0 0.0 0.00 0.34 0.12 34 1007.9
20260506013004 70 360 0.0 0.0 0.00 0.34 0.12 34 1007.7
20260506011505 71 360 0.0 0.0 0.00 0.34 0.12 30 1007.6
20260506010007 72 9 0.0 0.0 0.00 0.34 0.12 29 1007.4
20260506004506 73 360 0.0 0.0 0.00 0.36 0.12 29 1007.2
20260506003003 73 9 0.0 0.0 0.00 0.36 0.12 28 1007.1
20260506001503 73 360 0.0 0.0 0.00 0.36 0.12 28 1007.2
20260506000004 73 347 0.0 0.0 0.00 0.36 0.12 29 1007.0
20260505234502 73 355 0.0 0.0 0.00 0.36 0.12 29 1006.9
20260505233001 74 355 0.0 0.0 0.00 0.36 0.12 28 1006.9
20260505231503 73 355 0.0 0.0 0.00 0.36 0.12 28 1006.9
20260505230100 73 355 0.0 0.0 0.00 0.36 0.12 27 1006.8
20260505224559 74 360 0.0 0.0 0.00 0.36 0.12 26 1007.0
20260505223106 74 355 0.0 0.0 0.00 0.36 0.12 27 1007.2
20260505221600 74 355 0.0 0.0 0.00 0.36 0.12 27 1007.3
20260505220055 74 355 0.0 0.0 0.00 0.36 0.12 27 1007.2
20260505214613 74 360 0.0 0.0 0.00 0.36 0.12 29 1007.4
20260505213057 74 355 0.0 0.0 0.00 0.36 0.12 31 1007.6
20260505211549 73 5 0.0 0.0 0.00 0.36 0.12 33 1007.7
20260505210047 73 10 0.0 0.0 0.00 0.36 0.12 35 1007.7
20260505204547 73 5 0.0 0.0 0.00 0.36 0.12 37 1007.6
20260505203045 72 360 0.0 0.0 0.00 0.36 0.12 39 1007.8
20260505201545 74 360 0.0 0.0 0.00 0.36 0.12 37 1007.8
20260505200055 74 360 0.0 0.0 0.00 0.36 0.12 36 1007.9
20260505194538 73 9 0.0 0.0 0.00 0.36 0.12 40 1008.1
20260505193037 71 5 0.0 0.0 0.00 0.36 0.12 45 1008.1
20260505191537 70 5 0.0 0.0 0.00 0.36 0.12 48 1008.1
20260505190032 71 9 0.0 0.0 0.00 0.36 0.12 49 1008.3
20260505184529 70 9 0.0 0.0 0.00 0.36 0.12 51 1008.6
20260505183030 70 360 0.0 0.0 0.00 0.36 0.12 53 1008.8
20260505181520 68 12 0.0 0.0 0.00 0.36 0.12 56 1008.9
20260505180019 67 9 0.0 0.0 0.00 0.36 0.12 59 1009.1
20260505174515 66 10 0.0 0.0 0.00 0.36 0.12 59 1009.3
20260505173014 67 9 0.0 0.0 0.00 0.36 0.12 58 1009.3
20260505171510 67 10 0.0 0.0 0.00 0.36 0.12 60 1009.4
20260505170008 65 10 0.0 0.0 0.00 0.36 0.12 65 1009.3
20260505164503 64 15 0.0 0.0 0.00 0.36 0.12 69 1009.3
20260505163100 63 10 0.0 0.0 0.00 0.36 0.12 74 1009.4
20260505161605 62 5 0.0 0.0 0.00 0.36 0.12 76 1009.5
20260505153101 62 5 0.0 0.0 0.00 0.36 0.12 78 1009.2
20260505151604 61 5 0.0 0.0 0.00 0.36 0.12 78 1009.2
20260505140107 60 5 0.0 0.0 0.00 0.36 0.12 84 1008.7
20260505124540 58 5 0.0 0.0 0.00 0.36 0.12 88 1007.9
20260505123037 58 5 0.0 0.0 0.00 0.36 0.12 89 1007.9
20260505121538 58 5 0.0 0.0 0.00 0.36 0.12 89 1007.7
20260505120043 58 5 0.0 0.0 0.00 0.36 0.12 89 1007.5
20260505114529 58 5 0.0 0.0 0.01 0.36 0.12 89 1007.2
20260505113028 58 5 0.0 0.0 0.01 0.36 0.12 89 1007.3
20260505111527 58 5 0.0 0.0 0.02 0.36 0.12 89 1007.9
20260505101538 58 5 0.0 0.0 0.01 0.34 0.10 90 1008.1
20260505100022 58 5 0.0 0.0 0.02 0.34 0.10 90 1008.5
20260505094532 58 5 0.0 0.0 0.03 0.34 0.10 91 1008.6
20260505093019 58 5 0.0 0.0 0.03 0.34 0.10 91 1008.7
20260505091517 58 5 0.0 0.0 0.03 0.33 0.09 91 1009.0
20260505090019 58 11 0.0 0.0 0.02 0.32 0.08 90 1009.3
20260505084511 58 13 0.0 0.0 0.03 0.31 0.07 90 1009.8
20260505083015 59 13 0.0 0.0 0.04 0.31 0.07 90 1010.1
20260505081507 59 13 0.0 0.0 0.04 0.30 0.06 90 1010.5
20260505080004 59 13 0.0 0.0 0.06 0.30 0.06 89 1010.7
20260505074601 59 13 0.0 0.0 0.05 0.28 0.04 89 1011.2
20260505073133 59 13 0.0 0.0 0.05 0.27 0.03 89 1011.2
20260505071604 59 13 0.0 0.0 0.05 0.26 0.02 89 1011.0
20260505064555 59 13 0.0 0.0 0.07 0.23 0.23 87 1010.7
20260505063054 59 12 0.0 0.0 0.08 0.22 0.22 86 1010.6
20260505061547 59 13 0.0 0.0 0.07 0.21 0.21 86 1010.7
20260505060046 59 13 0.0 0.0 0.05 0.19 0.19 85 1010.9
20260505054534 60 13 0.0 0.0 0.02 0.16 0.16 84 1010.4
20260505053009 60 13 0.0 0.0 0.01 0.14 0.14 85 1010.2
20260505051517 59 13 0.0 0.0 0.01 0.14 0.14 84 1010.6